Theta_e
292 292 289 289 289 287 287 287 287 288 288 288 286 283 286 287 283 280 289 292 295 297 302 305 307 309 309 310 312 314 316 318 318 318 318 318 317 317 317 317 316 315 314 313 313 312 312 312 311 311 310 310 309 308 308 308 308 307 307 307 306 306 306 305 304 304 304 304 304 304 303 302 302 301 300 300 299 299 298 298 298 296 296 295 295 294 294
290 291 291 290 289 288 288 287 288 288 287 287 287 288 289 289 287 287 294 292 295 298 306 308 308 309 311 312 314 315 316 316 317 317 317 317 316 316 316 316 316 314 313 313 312 312 312 311 311 310 309 308 308 307 307 307 307 307 307 306 306 306 305 304 304 304 303 303 302 302 302 301 301 300 299 299 298 297 296 296 296 296 295 295 294 293 293
287 290 292 290 289 288 287 287 288 288 287 287 288 289 291 293 294 294 295 297 297 302 306 309 310 312 313 313 313 315 316 316 316 316 316 316 315 315 315 315 314 313 313 313 312 311 311 311 310 309 308 308 308 307 307 307 307 307 307 306 306 305 304 303 303 303 302 302 302 301 301 301 300 300 299 298 297 296 295 295 295 295 293 292 292 292 292
283 289 290 290 288 288 286 286 288 288 286 286 287 286 288 290 290 292 294 295 294 304 307 309 311 312 312 311 312 314 315 316 316 316 316 315 315 315 315 314 313 312 312 312 311 311 310 310 310 309 308 308 307 307 307 307 306 306 306 306 305 304 303 303 302 302 302 301 301 301 301 300 300 300 299 298 296 295 295 294 294 293 292 292 292 291 291
281 287 289 289 287 285 283 280 285 288 287 288 289 291 291 291 295 292 288 295 304 309 309 309 310 311 311 312 313 314 315 316 317 316 316 315 315 314 314 313 312 312 312 312 312 311 310 310 309 308 308 307 307 307 307 307 306 305 305 305 304 304 303 302 301 301 301 301 301 301 300 300 301 300 299 298 296 295 294 295 293 292 292 291 291 291 291
282 288 288 286 282 275 275 283 291 292 289 288 288 288 290 293 296 294 296 297 305 308 309 310 310 311 312 313 315 317 317 316 316 317 317 316 315 315 314 313 313 312 313 312 312 311 310 309 309 309 309 308 308 308 307 307 305 305 304 304 303 303 302 301 301 301 301 301 300 300 300 300 300 300 299 297 297 296 296 295 293 293 292 291 291 292 292
283 283 284 281 272 274 285 291 297 297 295 292 291 292 293 295 297 299 301 306 308 310 311 312 313 314 315 316 316 317 318 318 317 316 316 315 314 314 313 313 312 312 312 312 311 309 309 308 308 308 307 308 307 307 306 305 305 304 304 303 303 302 301 301 301 300 300 300 300 300 300 300 299 299 298 298 297 296 294 293 292 291 291 291 291 292 291
282 280 277 274 274 283 290 293 295 297 295 292 292 290 291 293 297 301 302 307 309 309 309 309 309 313 315 315 316 317 318 319 318 316 315 315 314 313 314 313 312 311 311 310 309 309 308 307 307 307 306 307 306 305 305 305 304 304 303 303 302 301 300 300 300 300 300 300 300 299 299 299 298 298 298 297 296 296 295 293 293 292 291 291 291 291 292
281 279 275 278 282 286 287 290 294 293 291 292 288 283 289 293 294 297 303 306 308 307 306 309 311 312 313 311 311 315 317 317 318 318 317 316 315 315 314 314 312 312 311 310 310 309 307 307 307 306 306 306 305 304 304 304 304 303 302 301 301 301 300 300 300 300 300 300 299 299 298 298 297 297 297 296 296 296 295 294 293 291 291 291 292 292 291
283 279 277 277 275 274 279 287 293 297 297 295 293 288 286 293 299 296 306 306 307 306 307 308 309 311 308 304 308 313 315 317 317 317 317 316 315 314 313 313 312 311 311 311 309 308 306 306 307 307 306 305 304 303 303 303 302 302 302 301 301 301 300 300 300 300 300 300 299 299 298 297 297 296 296 296 296 297 295 294 293 293 292 291 290 291 290
281 278 276 276 273 276 280 287 293 296 297 296 293 286 282 290 294 299 305 307 307 308 307 307 309 307 301 303 308 314 315 315 316 314 314 315 314 313 312 311 310 311 310 310 309 308 307 306 306 307 306 305 304 303 303 302 302 301 301 301 302 300 300 300 300 300 300 300 299 298 297 296 297 296 296 296 296 295 294 294 293 293 294 291 290 289 290
278 277 277 278 277 282 292 292 294 296 296 294 289 282 278 291 297 300 302 306 307 308 309 309 308 305 298 302 308 314 315 316 315 314 313 313 312 311 311 311 312 311 310 309 308 307 306 306 306 306 305 305 304 303 302 302 301 300 301 301 301 301 300 300 300 300 300 299 298 297 297 296 297 296 296 295 294 294 293 293 293 292 293 292 291 290 290
280 280 277 277 280 288 291 294 296 296 296 291 282 277 283 291 297 301 302 307 309 310 308 309 305 306 305 309 312 315 315 313 312 312 313 312 312 311 310 310 307 310 309 309 308 307 306 306 306 306 306 305 303 303 302 302 301 301 301 301 301 300 300 299 300 299 299 299 298 298 297 297 297 297 295 294 293 293 293 292 292 291 291 291 291 289 289
281 276 278 277 278 286 295 296 299 297 294 283 279 285 292 297 301 303 300 307 308 310 310 310 309 306 305 309 313 314 314 314 312 311 310 310 310 311 309 307 309 309 308 308 307 306 305 306 306 306 305 304 303 302 302 301 301 301 300 299 299 299 299 299 299 299 298 298 299 298 298 297 296 295 295 294 294 293 292 292 292 291 290 290 290 289 288
280 277 276 278 278 289 300 297 295 293 286 284 288 296 301 303 303 303 303 304 309 310 309 309 302 304 306 310 312 313 313 311 310 309 309 309 309 308 308 308 309 309 307 307 306 305 305 305 306 305 305 303 302 301 301 301 301 300 299 298 298 298 298 298 298 298 298 298 298 299 298 297 296 295 295 295 294 294 293 292 291 290 290 290 290 289 288
279 279 277 280 283 290 298 296 287 292 294 296 297 300 299 303 302 303 303 303 304 309 311 310 302 306 307 307 310 311 310 309 309 309 309 309 309 308 309 309 308 308 307 306 305 304 305 305 305 305 304 302 301 300 300 300 299 299 298 298 298 298 298 298 298 298 298 298 298 297 297 296 296 295 295 295 295 294 294 293 292 291 289 291 290 288 288
282 281 282 290 293 296 300 300 298 298 304 303 302 301 302 302 303 303 303 305 303 305 311 307 306 306 308 309 310 309 309 309 308 308 308 308 308 307 307 308 307 307 307 305 304 303 304 304 304 304 304 302 300 299 299 299 299 298 298 297 297 297 297 297 297 298 297 297 297 296 296 296 296 296 295 295 295 294 294 293 292 292 291 291 290 289 288
292 293 294 297 296 299 301 302 303 304 304 303 302 303 301 303 303 304 304 304 304 304 307 306 306 308 308 308 308 309 308 308 308 308 308 308 308 308 308 308 307 307 306 305 303 302 303 303 303 303 303 302 299 299 299 299 299 298 297 297 297 297 297 297 297 298 297 296 296 296 296 296 297 296 296 296 295 294 294 293 293 292 292 292 291 290 289
287 286 289 296 298 299 300 300 301 300 303 303 303 303 303 304 304 305 305 304 304 304 308 309 307 307 308 308 308 308 308 307 307 307 307 307 307 307 307 307 306 306 305 304 302 302 301 302 302 302 301 301 300 299 299 299 299 298 297 297 297 296 296 296 296 297 296 296 295 295 295 295 296 297 296 295 295 294 293 293 292 291 292 292 291 290 289
283 284 291 297 297 298 300 300 300 302 302 303 304 305 305 304 304 305 306 306 306 305 305 308 308 307 308 307 306 307 307 307 307 306 306 306 307 307 307 306 306 306 305 303 302 302 301 301 301 301 300 299 299 299 299 299 298 298 297 296 296 296 296 296 296 296 296 293 295 294 294 295 294 293 293 294 294 294 293 292 290 290 291 291 290 290 288
291 292 295 295 295 296 296 299 301 302 303 304 304 303 304 303 303 302 304 304 305 306 306 304 307 307 306 307 307 307 307 306 306 306 306 306 307 306 306 306 305 305 304 303 303 302 301 300 300 300 299 299 299 299 299 299 298 297 296 295 296 295 295 296 295 296 296 295 295 293 291 291 289 288 290 291 291 287 286 286 291 291 290 290 291 290 289
287 287 292 295 290 288 292 296 300 303 304 303 302 302 304 302 302 302 303 303 303 305 308 307 307 306 305 305 306 307 307 306 306 305 305 306 306 305 306 305 305 305 304 303 302 301 300 300 300 299 298 298 299 299 299 298 298 297 296 295 295 294 295 295 295 294 294 293 292 291 290 288 288 287 287 289 288 291 288 291 291 291 291 289 290 289 288
284 291 294 294 293 290 291 298 301 302 303 303 303 304 303 302 302 302 303 304 305 305 305 305 307 306 306 305 305 305 305 305 306 306 305 305 305 305 305 304 304 304 303 302 302 300 300 300 299 299 298 298 298 298 298 298 298 297 296 295 294 294 294 294 294 294 292 291 290 290 289 288 287 286 286 287 288 289 290 291 290 290 290 290 290 290 290
294 295 296 298 296 297 301 303 302 303 304 303 304 303 303 303 302 302 303 307 306 302 303 304 304 307 306 305 306 304 303 305 305 305 305 305 305 305 305 304 304 303 302 301 300 299 299 299 298 298 297 297 298 298 298 298 298 297 296 295 294 294 294 294 292 291 291 290 289 289 288 288 287 287 287 286 287 288 288 289 290 290 289 289 289 289 289
297 302 300 301 300 299 299 302 302 303 304 304 302 303 302 302 303 303 305 304 306 306 304 304 304 304 305 305 305 304 304 305 305 304 303 303 303 303 303 303 303 302 301 301 300 299 299 298 298 298 297 297 297 298 299 299 298 296 296 295 294 294 294 293 292 291 290 289 289 289 287 286 286 287 286 286 286 285 287 288 289 289 289 290 289 289 289
300 300 301 302 301 301 300 301 302 302 302 302 302 301 303 304 303 305 305 305 304 305 305 304 304 303 305 304 304 304 304 304 302 302 304 303 302 302 303 302 302 302 301 300 299 299 298 298 298 298 297 297 298 298 299 298 298 296 296 295 294 294 294 293 292 291 290 289 289 288 288 287 287 286 286 286 286 285 285 283 286 288 289 289 289 288 289
303 302 301 300 299 300 299 300 299 301 301 301 302 301 301 303 304 304 304 304 304 305 305 305 305 304 303 303 303 304 304 302 302 304 304 303 302 302 303 303 301 300 299 299 299 297 296 297 297 297 297 298 299 299 298 298 297 296 295 294 295 292 290 291 293 291 290 289 288 288 287 287 286 286 285 285 285 285 285 284 284 283 283 285 287 288 286
300 301 301 297 296 298 300 300 301 302 301 302 301 302 302 303 304 305 304 304 303 303 304 304 304 302 301 301 303 301 301 302 303 303 303 302 302 303 302 301 301 300 299 298 298 297 297 297 297 296 296 297 299 298 298 297 296 295 295 295 295 293 293 293 292 291 290 289 288 288 287 287 287 286 285 285 285 284 284 284 284 283 283 283 282 287 289
301 301 302 301 300 300 301 301 301 301 301 300 301 301 303 303 301 301 301 301 302 302 302 301 301 303 302 301 302 302 301 302 302 302 302 302 302 302 301 300 300 299 298 298 297 297 297 297 297 296 296 298 299 298 297 296 296 295 294 294 295 294 294 293 293 291 290 289 288 288 286 286 286 286 286 285 285 284 284 284 283 283 282 282 285 286 287
300 300 302 302 303 301 301 300 299 299 300 300 301 300 300 302 300 299 300 300 300 301 300 301 301 300 301 301 301 301 301 301 301 302 301 301 301 301 300 300 299 298 298 297 297 297 297 297 297 296 297 298 298 298 298 297 296 295 295 295 295 294 293 293 292 291 290 290 288 286 287 287 287 287 286 286 286 286 285 284 284 284 284 284 287 284 285
298 298 299 299 301 300 300 299 299 299 299 299 300 299 299 300 299 299 298 299 300 300 299 301 300 300 300 301 301 300 300 299 299 300 300 300 300 300 300 299 298 295 296 296 297 297 297 297 297 297 298 299 298 298 297 296 296 295 295 295 294 290 289 289 289 292 291 290 288 288 287 287 287 287 286 286 287 286 286 285 285 284 285 286 285 285 286
295 297 297 297 297 298 298 299 299 299 299 298 299 298 298 300 298 298 297 298 299 301 300 300 300 301 301 301 301 300 300 299 299 299 300 300 300 300 300 299 299 295 298 297 297 297 297 297 297 298 299 299 299 298 297 296 295 295 295 292 292 291 289 289 290 291 290 289 289 288 287 288 288 288 287 286 287 287 286 285 285 286 286 286 286 286 287
294 294 294 294 295 296 296 296 297 298 298 298 297 297 297 298 299 298 299 300 301 301 301 300 301 301 301 301 300 300 299 299 299 300 300 299 299 299 299 299 299 298 298 298 298 298 297 297 297 298 298 299 299 298 297 296 296 295 295 294 292 292 289 289 290 291 290 289 289 289 288 288 288 289 288 288 288 287 287 287 287 287 287 287 288 289 287
295 294 294 294 295 294 295 295 295 297 297 298 298 298 298 297 298 298 299 301 302 301 301 301 301 301 301 301 300 299 299 299 297 298 298 297 297 297 298 298 298 298 298 298 298 298 298 299 299 298 299 300 299 298 297 297 295 295 295 294 293 291 291 291 290 291 290 290 290 290 290 290 290 290 289 288 289 288 288 288 287 287 287 288 288 289 288
297 296 296 296 297 297 297 297 296 296 297 297 297 297 297 296 297 297 297 300 300 300 300 301 301 301 300 300 299 299 299 298 295 293 293 293 296 298 298 298 297 297 297 297 298 298 299 299 299 299 299 299 299 298 297 297 296 295 295 294 293 292 292 291 291 291 291 291 291 292 291 291 291 289 290 290 289 289 288 288 287 287 287 287 288 288 287
298 297 297 297 298 298 297 297 297 297 297 296 296 296 297 296 297 297 299 299 300 301 300 300 300 300 299 299 298 297 295 292 290 290 290 291 296 297 298 297 296 296 296 297 298 299 299 298 292 292 298 298 298 299 297 297 296 296 295 294 293 291 291 291 291 291 291 292 291 292 291 290 290 290 290 291 290 289 289 288 287 286 287 287 287 286 287
298 298 297 297 297 297 297 297 297 297 296 296 296 297 297 298 299 299 300 300 300 300 300 300 299 298 297 296 296 294 293 292 292 292 292 293 297 298 297 297 296 296 296 295 297 299 298 297 291 290 296 297 297 297 294 291 296 295 295 295 294 293 292 292 292 292 292 292 292 291 289 288 288 289 288 290 290 289 288 288 286 287 286 286 285 285 285
297 298 298 297 296 297 297 297 297 297 297 296 296 296 297 298 299 299 300 300 299 298 298 298 298 296 294 294 295 294 293 293 293 294 295 297 297 297 296 296 295 295 294 295 297 298 296 293 291 295 300 299 298 297 293 290 291 296 296 295 294 293 293 293 292 292 292 292 290 292 291 290 289 288 288 289 289 288 288 287 287 286 286 286 285 285 285
297 297 298 299 299 299 298 298 298 296 297 296 296 295 296 297 297 297 298 297 298 298 298 297 297 296 296 295 294 294 294 295 296 296 296 296 296 295 294 296 296 297 297 298 299 299 297 296 297 300 300 300 300 298 292 289 291 296 296 296 295 294 293 293 293 292 292 292 290 290 292 291 290 290 288 289 290 288 287 288 287 286 286 285 286 284 284
296 296 297 299 298 298 299 298 297 297 298 299 298 296 296 295 296 296 295 295 296 297 298 297 296 295 294 294 294 294 295 296 297 297 296 296 295 295 296 297 298 299 297 293 298 297 293 292 297 299 299 299 300 298 293 291 292 295 296 295 295 294 293 293 293 293 292 291 290 288 290 290 289 289 288 288 289 288 287 286 286 285 285 285 285 285 286
298 298 299 298 297 296 296 295 296 297 299 299 299 298 298 297 297 297 296 295 295 296 297 297 296 294 294 294 295 295 296 297 297 297 297 296 295 294 294 294 297 299 298 299 298 295 293 295 298 299 300 300 300 295 294 290 293 295 294 294 293 293 292 293 292 293 291 291 290 289 290 290 288 288 288 288 288 288 287 287 287 286 286 286 286 285 285
298 299 299 298 297 296 296 297 297 298 298 298 297 298 299 298 297 297 297 297 296 296 296 296 293 295 295 296 296 296 297 297 297 297 297 295 294 294 293 295 299 299 293 293 292 293 295 298 297 294 298 299 296 291 290 292 295 294 293 293 293 292 292 292 292 292 290 290 289 291 290 289 289 289 288 288 287 287 288 287 287 286 286 286 286 287 286
299 299 298 298 297 296 298 298 298 297 297 297 298 298 298 298 298 298 297 297 297 296 296 295 293 292 294 296 296 296 296 297 297 297 296 297 298 297 296 297 298 296 290 295 296 296 296 296 295 294 294 295 295 288 289 295 295 295 294 292 291 290 291 291 292 291 290 290 288 289 289 289 288 288 288 288 288 288 287 287 287 288 288 287 287 286 286
299 300 299 300 299 299 297 297 297 297 296 295 296 298 298 297 297 296 296 296 295 295 295 295 295 295 295 297 297 296 296 296 296 296 296 296 297 298 299 298 296 292 290 293 295 295 295 296 295 292 289 291 290 289 294 296 296 294 294 293 291 291 290 291 290 290 291 290 288 288 288 288 288 288 289 288 287 287 286 287 288 288 289 288 288 287 288
299 299 299 300 299 298 297 297 298 297 295 294 294 294 294 295 296 297 296 295 294 292 291 292 293 294 296 297 297 297 298 298 298 297 295 293 293 295 298 293 295 292 292 291 295 295 296 297 293 288 289 290 291 292 297 296 295 295 294 293 293 292 291 290 290 291 291 291 291 290 289 289 290 289 289 289 288 289 288 288 288 288 287 287 286 286 287
299 300 300 295 299 299 298 299 299 299 298 297 296 294 293 294 296 296 296 296 295 295 294 293 294 295 297 297 297 298 298 298 298 299 298 297 296 297 298 293 293 290 290 291 295 296 296 291 289 288 289 290 290 294 295 295 294 295 294 293 293 291 291 291 291 290 291 291 291 291 291 291 290 290 289 289 289 289 289 288 288 287 288 287 287 287 286
299 299 300 300 300 299 299 299 298 298 296 295 294 293 293 294 294 295 295 295 294 293 294 294 296 296 297 298 298 297 296 295 295 296 296 296 296 295 293 291 289 288 290 295 295 296 295 293 289 288 289 289 289 294 295 295 295 295 295 293 292 290 290 290 291 292 292 292 291 291 290 291 291 292 290 289 289 288 288 287 287 288 288 287 287 287 287
299 299 300 300 299 299 298 297 297 296 295 295 295 296 295 295 294 294 295 296 295 293 292 292 294 296 297 297 298 299 298 296 292 293 296 297 297 297 296 294 292 289 290 290 291 291 289 289 288 288 288 289 290 293 294 294 294 294 294 293 293 292 291 290 290 290 290 290 290 291 289 290 289 290 289 289 289 288 287 287 287 287 286 286 288 288 287
300 299 299 299 299 298 297 295 294 293 294 293 294 294 295 295 294 293 293 294 294 292 291 292 293 295 297 297 298 298 297 297 296 292 296 297 297 296 296 291 288 288 291 294 295 293 289 288 289 289 288 289 293 293 293 293 293 291 292 292 292 291 290 290 291 291 291 291 289 289 289 289 289 290 289 289 288 288 287 288 288 288 288 287 287 287 287
297 295 294 296 297 297 297 295 295 294 294 295 295 294 294 294 292 291 291 293 292 290 292 291 292 295 294 295 297 297 297 296 296 297 296 296 297 296 294 293 292 290 291 294 295 295 290 288 289 289 290 292 293 292 292 292 292 292 292 291 290 289 290 289 288 289 290 290 289 289 288 288 288 288 289 289 287 286 286 287 287 286 286 285 285 285 285
296 295 295 294 295 295 296 297 297 296 296 296 295 294 294 293 293 291 292 292 292 291 291 291 291 291 292 293 294 296 296 296 295 293 295 296 296 293 292 292 291 290 292 293 294 294 292 292 292 291 291 291 291 289 289 290 291 292 290 290 291 289 289 289 288 290 291 289 291 289 289 288 288 288 288 287 288 287 287 286 286 285 285 284 284 283 283
298 298 297 296 296 296 298 299 298 297 296 295 295 294 294 293 292 292 291 290 292 291 292 292 290 291 292 292 293 292 293 295 294 293 292 292 292 291 292 289 291 290 292 294 295 294 292 292 290 289 289 289 288 288 287 288 290 289 288 288 289 289 288 289 287 287 287 287 287 288 288 288 288 287 286 286 285 285 285 284 284 283 283 283 283 282 282
Wind_Speed
3 0 4 6 4 5 5 6 2 1 3 7 5 3 3 4 4 6 4 4 7 8 7 14 21 20 17 18 21 23 21 16 13 14 15 15 15 16 17 17 17 17 16 15 15 15 15 15 14 13 12 11 10 8 7 7 8 8 8 9 9 8 8 8 7 6 7 6 7 7 8 8 9 9 10 10 9 9 8 8 7 7 6 7 8 8 7
3 5 3 3 8 3 4 3 4 3 5 4 5 3 5 4 1 5 9 2 1 2 7 10 8 5 13 12 8 9 12 16 16 15 15 15 15 16 17 17 16 16 16 15 15 15 15 16 15 14 12 12 11 10 8 8 8 7 9 9 10 9 8 7 6 7 7 7 8 8 8 9 9 10 10 10 9 9 8 8 7 7 7 7 7 7 7
3 5 5 2 4 8 3 2 2 2 5 3 2 4 1 5 6 5 5 9 3 1 2 4 6 12 9 8 11 15 15 15 16 15 15 14 15 15 17 16 15 16 17 17 16 16 16 15 16 14 13 12 11 10 9 9 9 8 9 9 9 9 8 7 7 8 8 8 8 9 8 9 10 11 10 9 9 9 8 7 7 6 7 8 7 6 7
3 3 3 4 1 3 4 1 2 2 5 4 2 4 4 3 4 6 4 6 2 2 0 3 9 11 14 13 13 12 12 14 16 16 16 17 16 17 17 17 16 16 18 19 19 19 18 17 16 14 14 13 13 12 10 10 9 8 9 9 9 9 8 7 7 9 8 9 9 9 9 10 10 10 10 10 10 9 8 8 6 6 8 7 6 6 6
1 3 2 6 3 4 0 4 4 2 1 1 1 1 2 3 11 10 7 9 9 12 9 10 8 15 16 15 15 15 14 15 16 17 17 17 17 17 18 19 20 20 19 18 18 18 18 18 16 16 17 15 14 13 13 10 9 9 10 10 9 9 8 8 8 8 8 9 9 9 9 9 9 9 10 10 10 9 8 6 6 7 6 7 6 6 7
0 2 2 4 8 5 3 3 2 2 0 5 3 2 4 4 6 8 7 7 3 5 8 15 14 12 15 17 14 15 17 14 11 10 11 13 14 15 16 17 17 15 13 13 14 15 13 12 13 14 14 15 13 11 11 11 11 10 11 10 10 9 9 8 8 8 8 9 9 9 9 9 9 10 10 10 8 7 7 6 7 6 6 7 6 6 6
0 2 3 8 5 3 4 5 4 2 1 7 8 2 0 1 2 10 10 9 11 14 14 14 20 19 13 10 14 11 10 14 16 16 14 14 15 16 15 14 14 15 17 15 12 10 11 13 12 13 12 13 13 13 12 11 10 11 11 11 10 10 9 8 8 8 9 9 9 9 9 9 9 10 10 9 9 7 7 7 7 7 7 6 5 5 5
1 3 2 5 3 3 4 5 6 5 1 2 8 4 4 3 3 11 11 15 14 12 6 2 2 5 8 6 6 11 13 14 15 16 15 17 18 19 19 21 19 19 17 17 16 14 11 12 12 12 12 11 12 11 11 11 10 10 10 10 10 9 9 8 8 8 9 9 9 9 9 9 9 9 9 9 9 7 7 6 5 5 5 6 6 6 5
3 1 2 3 3 2 3 2 1 0 1 2 3 5 2 3 2 3 11 10 11 9 5 6 7 8 9 8 4 3 9 11 13 19 19 20 21 22 19 19 18 14 11 12 14 13 12 13 14 12 12 11 12 12 12 12 12 12 11 10 9 9 8 8 8 8 9 10 10 9 9 9 9 9 9 9 8 7 8 7 7 6 5 5 5 6 6
3 4 3 2 2 1 3 4 5 4 3 4 3 5 1 3 7 0 9 13 12 10 9 9 9 10 11 7 8 7 7 9 12 8 9 11 10 10 11 10 11 13 13 12 10 12 14 14 13 13 13 13 13 13 12 11 11 12 12 11 9 10 9 8 8 9 10 10 10 10 9 10 9 8 7 7 8 8 9 7 7 6 5 5 4 5 6
2 4 4 1 3 2 5 4 4 3 2 6 3 4 1 4 4 4 8 13 13 15 15 12 12 11 9 11 10 12 10 9 9 10 10 11 10 11 13 15 14 13 13 14 13 11 12 13 12 12 13 15 14 14 12 12 11 11 11 14 14 12 9 8 8 9 10 10 10 10 10 9 9 9 9 9 7 7 7 7 7 6 5 6 4 4 5
1 3 2 1 1 1 1 3 3 3 2 3 5 1 3 5 7 3 6 9 13 11 17 18 15 15 10 9 12 14 16 14 12 13 14 14 13 12 11 11 15 15 12 12 12 14 14 13 12 14 14 14 13 13 12 11 12 12 12 12 11 12 10 7 8 9 9 10 9 10 10 9 8 8 7 8 8 8 7 7 7 6 5 6 6 4 4
2 6 1 1 3 3 4 3 2 3 3 7 5 5 3 3 5 4 7 9 11 14 13 13 11 11 8 12 12 15 12 10 8 7 9 11 13 13 13 12 12 13 15 16 16 15 13 14 14 14 14 14 13 12 12 12 12 12 11 10 11 11 12 11 9 9 9 9 10 9 9 9 9 7 7 8 7 8 7 7 6 6 5 5 5 4 4
0 1 3 2 3 4 2 3 1 2 2 1 2 4 3 2 4 4 3 10 7 10 16 14 10 5 2 6 14 17 17 16 12 11 11 11 10 11 12 14 13 12 12 13 13 13 13 15 15 15 15 14 13 13 12 13 11 10 10 10 10 11 10 13 11 10 9 8 9 9 8 9 9 8 6 7 8 8 7 7 7 6 5 4 5 4 3
1 3 3 1 2 1 3 5 3 5 3 3 3 1 1 2 1 1 4 6 9 10 11 9 1 4 4 10 16 18 16 16 16 17 17 17 17 16 15 14 14 15 12 13 14 13 13 14 13 13 15 15 13 12 13 11 10 10 10 9 10 11 11 12 11 10 9 10 9 7 8 9 9 9 8 8 8 8 8 7 7 6 5 4 5 4 4
2 1 1 1 2 5 4 0 1 2 3 5 5 4 1 1 1 0 1 0 6 11 13 11 2 6 8 5 8 10 9 9 10 13 15 15 15 14 14 15 14 15 14 13 12 12 13 14 13 13 15 15 13 13 13 11 10 10 10 10 10 10 10 11 11 10 9 9 8 7 8 8 9 10 9 8 8 8 8 7 7 7 6 6 5 5 5
1 1 2 2 2 4 3 2 2 1 1 0 3 3 2 1 1 2 1 1 2 9 13 7 8 7 10 15 16 17 15 15 15 15 15 17 18 18 17 16 15 14 15 15 13 13 12 14 13 14 14 16 15 14 11 11 12 12 12 11 11 11 11 11 11 9 8 8 8 7 7 9 9 9 9 9 8 7 7 7 7 7 6 6 7 6 6
1 1 1 2 1 1 5 2 1 1 1 1 3 3 2 1 1 1 4 3 4 5 8 10 5 10 11 13 10 11 14 15 13 12 11 11 12 13 14 14 15 14 14 15 16 15 12 13 13 12 12 15 17 13 12 12 12 12 12 12 11 11 11 10 11 10 9 7 7 7 7 7 8 8 10 9 8 8 7 7 7 7 7 7 6 6 6
5 0 3 1 1 1 1 2 4 1 1 1 1 3 2 0 0 2 0 3 2 5 12 14 12 10 12 14 13 13 13 14 16 17 17 16 17 18 18 18 17 15 17 16 17 17 16 12 12 11 12 11 12 12 13 12 12 12 12 12 11 11 11 10 10 10 10 8 7 7 6 6 7 8 8 7 8 8 7 7 7 7 8 7 7 6 6
2 1 3 3 2 3 2 2 3 2 4 4 4 1 1 0 1 2 0 1 5 3 6 10 13 11 10 13 12 13 14 15 15 15 16 17 15 14 14 16 17 16 17 17 17 16 15 13 12 12 12 12 13 13 13 13 12 13 12 12 12 11 12 10 9 9 9 11 10 7 7 7 8 7 6 6 8 8 8 7 7 7 7 8 8 7 7
1 2 2 3 1 3 4 3 1 1 2 2 3 4 4 4 5 4 3 2 2 5 6 4 10 12 9 10 14 15 11 11 12 13 14 15 16 15 16 16 16 17 16 17 18 17 15 12 12 12 13 12 14 15 14 13 14 14 12 12 11 11 10 9 9 8 8 8 7 7 6 5 3 3 6 6 6 2 2 4 7 8 7 8 8 8 9
0 3 3 2 3 1 3 2 2 3 2 2 3 4 4 4 4 3 4 4 3 3 7 9 8 12 10 8 8 12 13 13 13 11 12 12 13 12 12 12 13 14 15 16 17 16 13 12 12 12 13 13 13 14 13 13 13 14 13 12 11 11 10 9 9 8 7 7 7 7 7 7 6 5 8 7 1 6 4 2 6 11 14 9 9 8 8
3 7 5 2 3 2 5 4 2 3 3 2 3 2 2 3 1 2 6 5 5 4 3 2 8 9 10 9 6 7 6 8 9 12 14 14 12 12 12 12 13 14 15 15 16 15 13 12 13 13 13 13 13 13 13 12 13 13 13 11 10 10 10 9 10 9 8 7 7 7 7 7 7 7 5 6 10 7 4 9 9 8 9 14 14 11 11
4 3 3 4 2 2 1 2 2 3 2 2 2 1 1 0 2 3 4 7 10 4 4 5 2 8 10 8 11 9 7 8 10 10 8 9 11 12 12 13 13 14 14 15 15 15 12 13 13 13 13 13 13 11 11 11 11 12 13 12 11 11 10 9 10 8 7 8 8 8 7 7 8 8 8 7 5 7 8 7 7 12 14 13 12 10 9
1 1 1 4 4 3 2 2 1 1 1 2 2 2 2 3 4 3 5 3 5 11 8 6 6 4 9 9 8 11 12 11 10 12 12 12 12 12 12 13 14 15 14 12 11 11 12 12 12 12 13 12 12 12 11 10 11 12 12 12 11 10 9 10 9 9 9 8 8 9 9 8 8 8 9 8 8 5 4 7 7 7 9 10 10 11 10
3 5 2 0 1 0 2 1 2 2 3 1 2 1 4 5 4 6 5 5 4 6 9 9 9 6 7 11 8 7 8 9 11 11 11 11 10 9 10 12 12 10 11 11 11 11 12 12 12 11 10 10 11 12 13 11 11 12 12 11 11 10 10 11 10 9 9 9 9 8 8 8 8 8 8 8 8 7 7 4 3 4 5 4 5 6 6
4 3 2 3 2 2 2 1 2 3 1 2 5 4 4 5 6 5 4 4 4 5 9 9 10 9 6 4 7 7 10 9 8 9 9 11 13 14 12 10 11 12 12 11 11 11 13 13 12 11 11 10 9 10 11 12 12 11 10 10 9 10 14 12 10 10 9 9 9 8 8 8 8 8 8 7 8 9 8 8 7 7 5 4 3 5 4
3 3 2 3 1 1 2 4 4 1 3 4 4 5 4 6 7 7 7 6 6 5 5 9 12 10 9 7 9 9 8 10 12 9 9 10 8 7 9 11 12 12 12 12 11 11 12 13 13 12 11 12 12 11 11 12 12 11 10 10 10 8 9 11 9 8 9 9 8 8 8 8 7 7 7 7 7 7 7 7 8 7 4 5 4 4 3
4 2 1 3 3 2 3 3 2 4 5 4 4 4 7 9 6 6 4 4 6 6 6 4 3 8 12 8 9 10 10 9 10 11 11 8 7 8 9 11 11 11 10 11 10 12 13 13 12 12 11 10 9 8 10 11 11 11 10 10 9 9 9 9 9 8 8 8 7 8 8 7 7 7 7 7 6 6 6 7 6 6 6 4 2 1 1
4 4 2 2 4 2 1 4 2 2 4 4 7 4 5 9 7 4 4 4 5 7 4 6 7 5 6 8 7 10 12 13 12 8 7 7 7 7 8 8 9 8 8 10 11 12 13 12 12 13 12 11 11 8 10 10 9 10 11 11 10 9 8 8 8 8 8 8 8 9 8 8 7 8 7 7 7 7 7 7 6 6 5 3 4 6 6
2 3 5 4 7 8 8 4 4 5 5 4 5 6 5 7 7 6 4 4 5 6 5 7 6 6 5 6 5 4 4 4 5 6 6 7 7 9 9 11 12 10 9 8 9 9 10 10 10 10 10 12 11 10 11 10 9 9 9 9 8 11 12 13 10 9 8 8 8 7 7 7 7 7 7 7 6 6 6 6 5 5 5 5 6 6 7
5 8 9 7 5 7 7 6 7 7 5 4 5 4 4 7 7 6 4 4 4 7 8 7 7 8 5 4 5 6 6 5 5 6 6 6 6 9 10 10 10 11 11 12 11 11 11 11 11 11 11 9 7 8 9 9 9 9 9 9 8 7 10 14 9 9 8 8 8 7 7 7 7 7 6 7 7 7 6 6 6 6 6 6 6 7 7
5 5 5 4 6 8 7 5 6 6 6 6 4 2 3 3 5 4 4 5 4 5 8 7 5 5 5 6 6 6 6 5 6 7 7 7 5 6 6 7 8 9 9 9 10 10 11 11 10 10 9 8 8 6 6 8 9 8 8 8 7 8 8 9 10 8 8 8 7 8 7 7 7 7 7 8 7 6 6 7 7 7 7 7 8 8 7
6 5 4 2 4 5 5 4 3 5 5 5 5 5 4 4 4 4 4 4 5 5 6 6 5 6 6 7 7 7 7 8 7 7 7 8 7 7 6 7 8 8 8 8 9 8 8 10 11 11 11 9 6 8 9 9 8 8 9 8 8 7 8 7 9 9 8 8 8 8 8 8 8 8 7 7 7 7 7 7 7 7 7 8 8 7 7
7 5 5 5 5 5 4 4 4 4 5 6 6 6 4 4 4 4 3 4 3 2 3 4 5 5 6 6 7 7 8 9 7 7 6 7 8 9 9 9 9 8 8 7 8 8 8 10 11 11 10 9 8 7 8 9 9 9 9 8 8 7 8 7 7 8 8 8 7 7 7 8 8 7 8 8 7 8 8 8 8 8 8 8 8 7 7
6 6 5 6 5 6 6 5 4 4 5 5 4 5 4 4 4 4 4 3 2 4 5 5 4 5 6 7 7 7 5 5 5 6 6 6 8 8 9 10 10 10 10 7 4 7 8 8 12 12 8 10 8 7 6 7 8 9 8 8 7 7 7 7 7 6 6 7 7 7 8 9 9 9 8 8 7 7 8 8 8 8 8 9 8 7 7
4 6 5 5 4 5 5 4 4 5 4 4 4 5 5 4 5 3 4 4 3 3 5 5 5 6 5 3 4 5 5 6 7 7 6 6 7 8 9 10 10 11 10 8 2 6 9 9 13 15 9 7 8 8 10 13 8 8 8 8 7 7 7 7 7 7 7 8 8 8 8 7 8 8 8 8 8 8 8 7 7 7 8 8 7 7 5
4 4 6 5 4 4 4 4 4 5 6 5 4 3 3 3 3 4 4 4 3 3 4 4 5 5 6 6 6 6 6 6 7 7 8 9 9 11 10 11 9 10 9 7 6 8 7 10 12 9 7 8 9 10 13 17 13 10 8 7 6 5 6 6 6 6 7 7 8 8 8 7 6 5 5 6 6 6 7 7 7 7 7 6 6 6 6
4 4 4 6 5 4 4 4 4 3 4 5 4 3 2 3 3 4 4 3 3 3 5 5 6 6 7 7 7 6 6 6 7 8 9 9 9 11 9 7 7 8 9 9 11 11 12 11 8 9 7 7 7 5 7 12 12 7 7 8 8 7 8 7 8 7 6 6 5 7 6 6 6 6 6 6 6 6 5 7 7 7 6 5 5 6 6
3 3 4 5 4 4 4 4 3 3 3 3 4 3 1 2 3 4 3 3 2 2 4 4 6 5 5 6 7 7 6 6 7 9 10 10 10 10 8 6 6 9 11 12 10 8 10 12 9 6 4 3 5 6 4 11 13 9 8 7 8 7 6 6 7 7 6 6 7 7 6 6 6 6 6 6 6 7 7 7 6 6 7 5 5 6 6
4 4 5 5 4 4 4 4 3 2 3 3 3 2 2 3 3 4 4 3 3 3 3 4 6 6 5 6 7 7 7 6 8 10 11 11 11 11 10 8 6 8 9 9 8 8 10 9 8 9 8 8 7 7 7 9 9 8 8 7 7 7 6 6 6 7 7 7 6 6 7 6 6 5 5 6 7 7 6 7 7 7 7 7 7 6 6
4 6 6 6 4 3 3 2 3 4 3 3 3 3 3 3 4 4 3 4 4 4 4 3 4 5 5 5 6 7 7 7 8 8 10 13 14 11 9 7 6 7 10 12 11 10 8 7 7 6 8 8 6 10 9 8 7 7 6 6 6 7 7 7 6 5 5 6 6 6 5 5 6 6 6 6 6 6 6 6 5 5 6 6 7 6 6
5 6 5 5 4 4 3 3 4 4 3 2 3 3 3 4 4 4 3 3 4 4 5 5 7 7 7 7 7 7 7 7 8 7 6 5 4 2 10 10 7 8 12 9 8 8 7 6 6 5 7 6 7 9 9 6 5 6 6 4 4 6 6 6 6 6 6 6 6 4 5 5 7 7 7 7 7 7 7 7 7 7 7 7 7 7 6
3 5 5 5 4 4 4 4 3 3 3 2 2 3 3 3 3 4 4 4 4 4 5 5 5 5 6 7 8 7 7 7 7 6 7 6 6 6 4 8 8 9 12 8 7 7 7 6 5 6 9 11 12 12 7 6 5 3 1 4 4 4 5 5 4 5 6 5 5 6 6 5 6 7 7 7 7 7 7 7 7 7 7 7 7 7 7
4 4 4 5 5 5 5 4 4 4 3 2 2 3 3 3 3 3 4 4 4 3 3 4 4 5 5 5 6 7 7 7 8 8 8 7 6 6 4 6 9 8 9 10 7 6 6 6 6 7 8 10 10 10 6 5 4 2 1 2 4 6 5 5 6 5 6 6 6 7 6 6 6 7 7 8 8 8 8 8 8 8 7 7 7 7 7
2 3 4 6 6 6 4 4 4 5 4 3 2 2 2 3 3 3 3 4 4 4 4 4 5 5 5 5 4 5 5 5 3 2 3 7 10 9 8 7 7 7 11 11 7 7 7 10 10 8 10 9 9 7 3 1 3 3 2 3 4 3 5 6 6 6 5 6 7 7 7 7 6 6 7 7 8 8 8 9 8 8 7 7 7 8 8
3 3 3 4 4 5 5 5 6 5 3 3 3 2 2 3 4 4 3 3 3 3 3 3 3 4 4 5 7 7 6 5 4 4 4 5 7 8 9 9 9 10 10 8 7 7 7 10 8 8 10 8 8 2 1 0 2 5 6 5 6 6 6 5 5 6 7 7 8 8 9 9 8 8 8 8 7 7 7 7 7 8 8 7 7 7 7
4 4 6 6 5 5 6 6 6 5 5 5 4 4 3 3 3 3 3 4 4 4 4 3 4 3 4 3 2 3 6 7 7 2 2 5 5 7 7 6 7 8 8 7 8 6 9 11 11 9 9 8 3 1 1 2 3 6 7 7 7 7 6 4 3 4 5 6 7 6 6 7 7 7 7 7 7 8 6 6 6 8 6 7 7 7 6
4 5 4 5 6 6 6 5 5 6 5 3 4 3 3 4 4 4 3 3 4 4 4 4 4 3 4 3 4 4 2 1 4 5 4 5 7 7 6 7 10 9 7 6 6 4 6 9 11 10 9 6 3 3 3 4 5 6 7 7 7 7 6 5 5 4 4 4 6 7 7 8 7 7 7 7 7 7 7 7 7 7 7 8 8 7 3
3 3 4 6 5 7 7 6 6 6 5 5 5 4 4 5 5 3 4 5 5 4 4 4 5 4 4 4 4 4 4 5 5 6 5 5 6 7 7 7 7 8 8 7 6 6 7 9 10 10 7 5 5 6 5 5 6 7 7 8 8 7 5 5 5 4 4 5 5 5 5 6 6 7 7 7 6 4 6 6 3 3 5 5 6 6 6
5 4 5 5 5 4 6 8 7 7 6 6 5 5 6 6 5 5 5 6 5 5 4 4 3 4 4 4 4 4 4 5 5 6 6 6 6 7 8 7 8 7 7 7 6 5 5 6 5 7 7 6 6 5 4 5 6 8 7 7 7 6 5 4 4 5 5 6 6 5 5 4 3 3 3 4 3 2 1 4 6 6 6 6 7 7 7
7 6 6 3 1 2 5 5 4 6 6 5 6 6 6 6 6 5 4 5 6 6 6 6 5 3 4 5 4 4 5 5 5 5 5 6 6 6 6 7 6 6 7 6 6 5 5 6 6 6 6 6 4 4 5 6 7 7 7 5 4 4 5 4 4 4 4 4 4 4 5 2 2 2 3 6 7 7 7 7 7 7 7 7 6 7 7
Wind_Direction
83 142 184 121 106 136 165 167 187 144 140 120 127 205 186 126 162 201 217 204 162 174 193 173 158 160 163 164 170 177 173 164 163 160 157 157 155 153 153 153 152 151 150 150 147 145 144 142 142 143 145 144 140 136 133 131 132 133 131 126 126 125 123 122 124 119 112 109 110 112 111 109 107 106 106 105 103 103 101 101 99 99 99 97 94 86 77
9 18 5 154 131 135 129 145 189 167 134 166 140 153 176 140 199 203 151 130 232 174 177 177 169 152 159 159 138 124 143 165 166 162 161 158 156 156 154 153 154 151 148 148 149 147 148 149 150 155 150 146 144 142 139 136 137 140 132 131 131 131 127 128 126 119 115 115 116 115 112 110 112 111 109 108 105 101 100 99 100 99 94 89 86 88 85
357 329 2 11 159 143 190 232 193 115 135 134 174 110 78 63 56 57 122 129 119 337 78 116 109 105 92 112 149 163 162 161 164 164 162 157 155 155 153 150 150 152 153 153 152 152 155 159 162 156 148 145 142 141 143 144 144 143 131 131 131 130 129 129 127 123 120 122 120 115 114 112 114 115 115 111 106 103 102 101 99 98 92 87 84 81 81
334 343 10 292 169 152 152 217 272 134 110 104 202 121 207 122 143 97 82 104 144 221 80 136 132 130 137 156 162 163 169 170 167 166 163 159 157 156 155 152 152 157 161 163 162 161 162 164 160 152 149 148 148 150 150 149 146 136 131 133 133 131 129 129 130 129 127 124 119 119 117 117 117 117 116 111 110 109 107 101 97 94 88 89 90 86 82
289 275 333 227 95 60 251 269 274 224 184 169 63 32 114 177 146 124 138 203 189 166 156 143 169 167 169 165 167 169 173 173 173 170 165 161 158 157 156 159 165 168 168 167 166 166 167 166 159 157 150 150 155 156 155 151 137 135 136 136 134 132 131 132 134 131 128 125 124 121 120 120 119 119 117 115 116 113 109 108 99 92 95 91 87 86 84
255 329 334 100 86 147 236 232 206 179 186 168 141 164 203 174 141 185 175 169 100 123 161 162 162 166 179 178 179 172 165 162 162 159 157 155 156 157 164 166 164 160 160 167 172 171 161 151 150 152 152 146 147 147 145 144 142 142 139 138 136 136 135 137 137 134 130 128 125 125 124 122 121 121 120 119 117 113 110 102 98 96 90 90 90 84 85
284 357 29 79 144 220 244 280 282 239 129 120 131 147 250 117 90 96 101 129 161 182 179 179 178 181 169 154 152 160 170 162 159 158 156 156 156 163 166 164 159 167 172 170 159 151 149 148 147 145 148 153 148 146 148 144 142 141 140 139 139 139 140 141 139 136 133 129 128 129 126 124 120 119 120 119 117 118 115 114 110 108 106 98 92 92 90
21 41 31 105 211 236 304 304 303 287 85 111 109 96 16 333 188 141 151 168 175 165 160 88 25 129 139 131 149 159 161 164 160 155 163 167 167 170 176 172 174 173 174 168 160 152 143 143 149 151 150 147 143 142 141 139 138 139 139 140 141 138 139 144 143 141 136 134 133 131 128 125 121 121 122 125 124 122 112 107 103 100 92 98 102 99 94
128 160 116 171 295 14 358 34 21 86 112 19 142 163 25 319 313 215 164 168 156 145 111 116 110 111 113 128 152 193 168 169 173 170 172 173 179 179 178 171 166 164 152 151 157 149 145 148 148 151 147 142 136 137 141 148 149 145 142 140 141 139 137 145 146 143 139 138 137 135 132 128 127 126 124 121 119 121 118 122 120 115 118 112 112 106 97
109 105 43 19 33 125 277 248 278 282 217 143 163 101 332 315 346 268 156 157 166 143 130 134 135 122 117 140 195 204 196 180 178 179 167 170 169 163 155 147 146 151 158 155 148 146 145 150 151 146 145 139 138 142 147 147 144 145 142 139 135 138 153 156 150 146 145 143 142 140 136 136 134 129 122 120 125 129 129 132 126 131 127 113 106 109 107
33 40 94 137 130 242 211 256 252 263 226 140 133 66 346 281 297 324 174 160 161 154 149 149 143 139 155 195 197 193 183 184 175 155 162 165 162 159 158 154 152 156 157 153 145 139 142 146 148 142 140 140 143 149 150 151 150 150 152 151 152 148 154 149 148 146 146 143 142 140 137 139 138 136 135 134 133 125 127 126 132 135 131 122 118 107 110
79 136 79 59 191 74 331 261 278 250 154 89 61 134 277 273 311 302 162 169 162 170 159 155 162 157 181 203 213 188 184 180 168 160 159 157 155 156 154 156 154 150 145 140 147 150 151 150 148 144 144 147 149 149 150 149 152 154 161 158 147 139 137 144 145 144 143 142 142 142 141 139 138 137 133 128 132 130 130 130 134 136 133 133 129 130 117
60 79 338 335 320 283 261 272 259 193 118 72 93 189 236 261 286 311 173 173 174 159 161 167 164 214 185 206 177 153 154 146 153 150 149 149 149 150 152 151 147 149 154 157 157 158 152 149 151 150 150 148 150 151 152 156 161 161 154 144 145 145 143 139 143 146 144 145 144 145 145 143 140 135 136 136 136 132 135 132 130 133 135 138 130 131 122
124 155 110 210 236 240 256 327 204 280 51 79 198 233 206 224 295 322 165 162 171 170 169 187 197 207 47 86 128 146 163 168 151 139 137 135 140 145 146 146 150 152 154 155 154 152 153 155 155 155 153 153 152 154 159 166 162 147 141 142 142 143 150 142 146 146 146 145 144 145 145 138 137 139 140 138 139 140 138 141 143 144 142 132 124 113 99
58 49 65 27 125 301 15 327 3 30 99 228 210 201 298 231 259 324 36 153 172 172 198 204 92 108 86 140 154 157 158 150 154 153 151 152 155 156 153 158 159 152 153 156 155 152 154 154 155 156 154 152 155 157 164 160 148 145 140 143 143 145 146 142 143 147 147 147 146 147 148 147 144 146 150 147 148 146 147 148 146 146 144 137 121 115 100
153 99 115 164 214 252 301 54 165 260 180 187 172 135 60 289 187 92 315 51 174 189 194 187 125 120 121 107 126 132 136 139 142 153 155 155 153 154 158 155 155 155 150 151 151 154 157 157 157 157 156 157 159 162 161 148 145 140 140 144 144 144 144 142 142 147 149 148 146 147 149 144 143 148 155 156 154 157 157 153 153 149 151 141 132 132 136
123 199 203 239 249 238 283 99 125 194 300 188 149 139 152 97 7 171 119 275 227 196 198 162 148 142 162 159 159 153 160 157 159 161 163 161 160 159 161 162 157 156 154 151 150 154 161 159 158 160 162 159 159 158 153 148 150 146 146 148 147 145 145 144 145 148 145 146 147 148 148 145 146 153 156 157 158 169 159 159 157 156 161 157 155 156 147
64 112 185 224 304 352 353 353 72 89 18 109 122 114 82 329 264 187 160 226 247 213 170 141 182 168 165 151 159 150 151 154 154 149 149 155 154 155 152 154 160 155 151 151 154 157 161 162 159 161 162 159 159 156 149 151 148 146 146 147 146 147 146 145 148 149 146 149 148 146 146 150 151 156 158 161 163 168 165 168 167 159 164 166 162 161 161
73 243 310 95 174 1 1 0 331 340 346 342 112 108 142 226 83 105 237 171 187 177 160 165 169 170 165 158 157 156 151 154 159 162 162 162 164 165 167 162 156 155 156 158 161 160 159 164 161 160 155 155 145 142 151 151 148 147 147 146 145 146 148 148 150 151 152 154 152 148 147 149 151 158 158 164 163 168 173 173 172 164 163 166 165 162 167
103 206 244 262 269 284 305 80 48 1 336 355 12 21 283 178 133 120 131 104 86 97 164 165 156 159 160 152 153 161 163 161 161 162 163 162 164 170 162 160 161 157 161 161 161 161 161 163 161 156 152 148 149 150 151 153 150 148 149 150 150 153 152 152 154 157 155 156 153 152 158 154 151 152 159 160 168 173 181 174 162 164 159 166 163 163 160
300 323 276 315 14 346 342 345 355 268 285 16 353 353 8 12 38 11 47 39 148 139 138 139 145 144 166 168 161 156 154 154 160 165 164 165 164 160 163 168 166 164 163 162 162 163 163 162 156 152 150 150 154 155 156 155 153 151 152 151 149 149 151 150 155 156 155 158 156 146 133 109 90 118 154 165 160 182 260 191 167 157 169 164 167 164 156
144 173 209 133 129 261 296 308 273 307 306 71 13 353 15 13 32 17 70 56 41 103 139 142 150 146 144 150 157 158 159 161 155 150 153 157 159 163 163 160 162 160 163 162 163 164 161 156 153 151 153 155 158 159 156 156 154 152 151 150 149 153 155 156 155 152 151 147 141 137 134 131 117 71 31 45 341 175 167 210 210 171 151 162 171 157 157
221 239 232 175 135 220 231 225 283 279 277 74 42 360 334 335 15 190 116 97 89 89 55 66 137 138 144 143 137 134 143 150 153 152 152 154 157 159 161 163 166 165 165 164 165 163 160 156 155 155 156 158 161 162 159 158 156 152 151 152 155 156 158 161 161 155 147 142 142 135 137 133 125 116 90 42 34 30 123 149 150 146 129 135 149 160 153
251 235 197 175 135 186 266 291 277 313 322 89 49 331 311 280 73 113 123 151 140 125 99 75 90 147 138 140 138 131 118 130 140 147 148 150 153 155 162 168 167 165 166 168 169 163 156 157 158 158 157 160 159 158 156 156 156 155 158 157 162 164 162 156 150 148 146 144 142 139 140 138 136 133 131 111 57 33 43 82 116 127 131 138 149 154 156
242 262 190 181 195 231 239 248 267 330 332 131 86 359 340 58 75 116 125 146 144 137 124 109 97 119 135 132 139 147 149 150 151 150 152 153 158 164 169 171 171 169 168 165 157 155 155 156 155 158 158 160 153 147 150 166 160 160 162 161 160 160 157 151 150 149 147 149 150 147 148 146 145 143 138 138 126 100 39 43 69 95 123 140 149 153 152
274 291 283 98 91 276 302 14 356 0 347 61 86 17 29 62 103 113 125 134 113 111 118 122 115 116 134 134 128 122 126 143 145 143 149 158 161 166 174 176 169 159 157 159 157 155 156 151 144 149 156 157 154 158 161 162 160 166 165 163 162 162 160 157 154 155 155 155 154 155 153 150 150 147 148 144 142 141 124 102 68 47 51 89 131 142 155
339 318 88 32 19 340 25 139 242 272 12 42 93 90 67 66 72 87 93 74 93 118 128 126 124 120 97 106 118 129 139 134 136 155 163 165 172 177 173 163 160 158 158 156 156 155 149 145 151 155 150 148 147 159 165 163 165 165 163 159 160 157 151 153 157 159 158 157 154 152 153 155 155 153 153 154 150 150 154 156 164 167 186 206 219 164 167
351 345 103 147 198 225 334 316 273 301 103 108 104 87 82 70 70 82 89 89 79 79 98 125 126 121 120 132 130 119 120 144 159 163 166 180 178 166 161 161 159 157 157 157 156 147 145 151 154 154 154 154 157 174 167 163 162 162 161 161 158 150 155 156 153 155 157 157 157 156 160 163 161 156 150 152 156 165 164 161 161 173 196 208 209 235 212
330 304 158 161 180 210 262 274 62 78 63 43 74 85 81 72 65 77 78 101 117 110 100 66 76 130 138 146 145 147 155 158 163 173 178 170 162 164 162 157 155 153 151 149 147 151 155 158 157 153 152 151 153 175 166 161 162 162 161 163 159 156 159 160 158 155 155 154 157 160 158 154 152 148 154 158 158 152 158 161 170 180 183 181 165 265 276
335 308 333 342 321 345 49 39 17 25 48 66 83 53 88 104 83 73 98 105 115 116 122 120 117 119 138 144 155 157 167 177 177 165 152 150 149 144 143 134 125 127 134 149 157 159 159 158 154 151 149 150 159 172 160 166 164 162 162 164 162 159 160 158 152 151 152 159 162 158 154 157 158 156 157 161 163 164 162 171 173 170 181 198 185 189 206
354 32 47 32 50 54 64 57 51 42 34 40 92 91 65 84 102 95 88 110 109 113 133 136 139 137 157 163 152 132 111 114 133 144 144 142 142 143 143 147 150 160 157 151 149 151 148 144 141 143 149 153 166 172 164 162 160 160 160 161 155 151 154 154 156 159 162 156 157 158 160 159 162 158 161 163 166 168 172 172 171 186 197 186 190 205 223
65 42 42 38 46 64 52 39 55 43 34 41 69 86 127 126 125 125 111 115 148 141 132 132 146 162 153 128 126 135 135 130 122 126 131 131 145 150 155 159 156 155 157 157 157 155 152 144 141 142 144 151 162 178 162 159 158 159 165 157 146 149 158 157 157 162 158 161 161 162 163 166 169 165 160 170 177 181 176 167 187 197 196 196 210 221 220
81 55 28 15 37 53 54 29 55 42 38 44 28 44 67 88 113 114 123 120 109 124 131 145 157 145 133 129 131 132 128 122 121 123 130 138 143 150 150 145 146 151 150 152 153 151 147 139 131 134 143 156 182 175 161 159 156 156 157 151 148 149 160 166 165 163 161 154 163 169 168 175 171 170 181 185 187 180 178 186 193 196 203 209 216 225 195
113 130 138 123 123 116 106 72 57 74 60 54 51 50 59 66 89 94 96 103 113 120 138 147 145 136 134 140 136 131 129 129 140 152 150 147 146 141 130 127 138 137 132 131 131 128 127 129 138 152 165 171 170 171 173 160 153 153 156 148 144 143 160 169 167 167 166 171 172 169 172 179 180 187 187 192 191 186 190 196 196 197 203 216 227 228 214
102 110 110 99 90 92 94 98 94 92 85 73 53 47 51 63 77 91 92 98 96 92 84 111 124 129 132 135 143 151 160 165 161 152 152 148 150 145 138 132 126 121 121 128 134 135 138 145 153 156 162 167 172 182 172 158 150 153 153 148 147 155 160 164 173 178 176 178 168 168 178 185 195 195 193 189 194 194 197 200 200 198 202 212 229 228 229
84 76 70 75 82 88 82 80 83 90 92 92 90 86 79 79 82 77 82 76 79 97 94 97 107 119 133 149 157 164 156 139 137 141 144 148 142 137 135 136 133 130 131 128 141 144 145 152 153 158 158 161 161 155 151 139 148 148 150 144 148 145 150 162 171 171 174 167 171 172 175 185 186 187 192 193 190 189 192 196 193 195 199 209 212 211 226
91 105 99 94 94 89 83 85 93 93 88 95 99 92 86 82 92 94 90 85 80 102 120 121 125 138 144 122 102 88 102 129 138 141 141 134 128 126 126 125 129 135 137 130 106 143 150 151 158 149 145 139 142 144 148 145 153 150 145 149 152 150 154 160 167 165 171 176 175 174 172 160 162 176 184 187 188 188 185 187 192 193 200 201 194 191 192
90 107 111 106 90 82 84 91 97 100 99 76 62 79 100 96 89 99 100 109 124 130 120 123 126 117 111 104 103 116 125 126 130 132 134 134 132 126 130 132 133 128 123 128 116 99 102 110 114 117 125 136 143 154 160 154 153 149 147 148 143 145 154 162 167 172 167 177 180 176 176 175 176 180 189 193 203 201 196 194 189 192 206 202 191 190 188
75 87 98 90 79 85 83 73 74 76 98 114 111 96 112 127 126 116 120 138 145 132 123 124 126 124 125 121 119 119 127 135 135 130 127 127 128 126 129 127 124 125 127 133 127 127 127 131 149 145 139 133 125 117 142 140 129 137 152 162 168 170 162 167 177 180 177 165 163 184 192 186 182 186 191 199 203 208 207 202 196 199 204 207 192 198 199
131 92 92 102 111 104 98 90 79 84 80 90 110 116 125 98 89 83 76 70 47 89 122 129 122 119 117 120 126 129 132 129 126 122 120 118 115 112 101 86 115 127 134 136 134 129 123 112 111 102 92 98 100 112 152 166 158 169 178 184 179 169 162 166 167 169 174 165 181 189 193 191 191 187 194 199 201 201 200 202 200 204 208 217 214 216 203
135 114 111 106 114 107 107 102 101 101 104 98 92 92 79 90 91 90 94 101 88 79 93 118 122 120 132 138 137 137 135 131 131 131 129 124 126 131 132 138 154 141 142 139 136 133 128 125 124 141 168 176 164 168 171 186 182 177 173 172 166 166 158 163 169 174 174 177 180 184 195 191 193 196 200 202 206 204 203 198 198 201 199 206 218 218 215
120 127 126 124 123 115 103 94 95 80 66 77 84 79 72 64 78 97 107 111 100 97 96 76 86 124 124 117 116 119 119 123 127 137 145 146 147 140 130 146 157 147 137 129 130 130 122 126 148 159 162 164 154 172 162 171 181 172 163 171 173 173 169 172 174 177 165 166 174 187 191 184 186 202 209 212 218 220 222 226 229 227 224 216 220 220 218
117 124 132 135 149 141 130 122 109 114 97 73 87 92 85 82 85 78 84 90 99 92 86 101 108 111 117 124 124 122 122 127 127 120 83 40 37 100 144 147 140 137 135 131 133 121 130 122 132 165 177 154 142 158 145 145 151 155 170 179 182 180 183 180 182 174 169 161 168 173 174 183 192 202 209 215 220 223 224 225 228 236 234 226 224 226 225
110 114 132 147 145 134 134 128 119 102 95 78 75 94 96 93 95 99 93 90 88 103 121 123 124 127 133 136 133 130 132 132 128 126 118 97 78 59 106 131 134 136 134 135 137 138 140 138 132 136 156 178 171 158 131 104 82 78 131 178 188 185 192 192 191 186 189 191 189 188 184 184 192 203 206 213 220 227 226 227 230 232 235 234 234 232 235
128 121 138 145 141 132 143 149 152 148 152 146 90 90 104 108 108 104 111 111 113 111 113 125 130 135 137 140 144 147 149 148 149 142 129 120 115 142 166 139 137 143 145 144 153 157 150 154 146 136 112 123 159 158 114 91 103 129 236 248 202 188 186 189 200 202 204 206 211 212 206 202 203 203 204 212 213 214 216 217 223 222 220 225 225 227 231
152 145 120 120 137 152 165 144 128 117 125 112 92 66 90 116 117 111 114 122 129 139 146 146 143 144 142 127 114 123 126 127 121 127 140 157 163 161 153 142 138 141 143 140 147 160 168 159 156 137 106 94 96 101 87 20 341 315 254 237 237 187 182 192 194 205 211 216 217 216 219 223 219 218 214 213 213 212 221 220 224 228 224 226 226 222 223
134 120 112 118 128 118 115 114 120 123 117 113 130 150 146 124 126 127 124 115 116 115 118 124 130 139 138 142 143 140 133 113 56 38 79 82 94 117 140 139 129 137 142 145 149 155 157 157 152 129 106 92 81 69 76 64 277 280 271 256 237 225 188 175 188 206 214 217 217 218 220 217 217 218 216 216 215 216 223 219 225 232 231 232 242 246 246
130 136 144 143 135 126 116 118 125 144 166 178 177 160 150 137 124 116 117 120 113 110 110 114 122 128 127 125 124 136 149 145 122 73 95 104 111 128 144 153 152 149 139 132 137 140 144 140 134 129 118 108 96 56 338 304 282 272 271 265 248 233 219 207 205 194 191 200 206 200 205 212 218 219 216 214 220 221 222 220 232 243 246 235 239 242 236
154 148 155 153 142 136 138 147 150 161 187 178 154 168 152 131 126 120 123 121 121 122 129 133 133 137 140 143 138 122 90 87 136 164 170 134 141 140 137 139 148 147 135 131 143 156 159 148 148 148 139 132 143 204 235 238 237 238 243 242 241 234 219 206 216 206 207 211 200 188 182 181 189 189 196 202 207 207 205 210 217 213 216 213 219 231 254
119 110 126 147 161 161 163 168 179 180 177 166 179 167 145 126 125 154 144 139 141 139 135 135 141 138 135 135 130 127 126 111 92 102 116 131 135 135 138 148 155 155 147 145 158 168 180 176 162 160 157 168 195 211 228 240 249 233 223 220 221 223 219 217 228 225 215 215 215 212 206 207 199 199 199 199 204 205 206 216 234 316 350 11 33 46 60
165 159 189 207 206 163 162 182 185 173 173 173 166 160 151 156 165 166 156 141 134 133 135 136 139 144 138 137 140 144 119 105 118 130 132 137 140 149 154 153 153 159 159 162 167 172 159 173 179 173 178 194 203 204 217 238 252 253 242 224 219 218 229 229 225 230 228 221 222 227 230 234 233 236 232 234 247 280 8 52 63 69 68 56 50 52 58
176 184 207 204 170 146 162 180 142 156 170 154 153 153 158 150 147 159 158 165 152 149 153 141 160 184 154 153 146 126 108 117 133 138 139 142 137 134 133 137 141 151 160 173 180 174 170 176 175 182 199 201 198 206 225 237 247 255 245 219 196 196 204 206 198 202 217 214 205 220 239 266 347 16 28 39 54 73 74 73 69 71 76 75 68 65 65